Regional Weather Roundup
Issued by NWS

Home | Current Version | Previous Version | Graphics & Text | Print | Product List | Glossary On
Versions: 1 2 3 4 5 6 7 8 9 10 11 12 13 14 15 16 17 18 19 20 21 22 23 24 25 26 27 28 29 30 31 32 33 34 35 36 37 38 39 40 41 42 43 44 45 46 47 48 49 50
000
ASUS43 KDMX 190901
RWRIA

WEATHER ROUNDUP FOR IOWA
NATIONAL WEATHER SERVICE DES MOINES IA
300 AM CST SUN NOV 19 2017

NOTE: "FAIR" INDICATES FEW OR NO CLOUDS BELOW 12,000 FEET WITH NO
SIGNIFICANT WEATHER AND/OR OBSTRUCTIONS TO VISIBILITY.

* - THESE STATIONS ARE NOT NWS STATIONS...THUS NOT UNDER NWS
QUALITY CONTROL.  THEY ALSO DO NOT REPORT WEATHER SUCH
AS PRECIPITATION OR FOG.

IAZ001>003-012>014-020>022-031>034-043>046-191000-
   NORTHWEST IOWA

CITY           SKY/WX    TMP DP  RH WIND       PRES   REMARKS
CARROLL *      CLEAR     23  18  80 W8        30.17R WCI  14
DENISON *      CLEAR     21  18  86 W6        30.21R WCI  14
LE MARS *      CLEAR     23  18  80 W5        30.19S WCI  17
ORANGE CITY *  CLEAR     21  18  86 SW5       30.16F WCI  15
SHELDON *      CLEAR     18  14  86 W7        30.14S WCI   8
SIOUX CITY     CLEAR     23  18  81 W3        30.21R
SPENCER        CLEAR     17  13  84 W8        30.15R WCI   7
STORM LAKE *   CLEAR     19  16  86 W12       30.16R WCI   7
$$

IAZ055>058-069>071-079>083-090>094-191000-
   SOUTHWEST IOWA

CITY           SKY/WX    TMP DP  RH WIND       PRES   REMARKS
ATLANTIC *     CLEAR     25  19  80 NW7       30.20R WCI  17
AUDUBON *      CLEAR     25  18  74 CALM      30.19R
CLARINDA *     CLEAR     28  23  80 NW7       30.22S WCI  21
COUNCIL BLFS * CLEAR     27  23  86 NW7       30.21R WCI  19
CRESTON *      CLEAR     27  18  69 NW10G17   30.18R WCI  17
HARLAN  *      CLEAR     25  21  86 NW12      30.23R WCI  14
LAMONI         CLEAR     28  18  66 NW12      30.16R WCI  18
RED OAK *      CLEAR     27  21  80 NW6       30.22R WCI  20
SHENANDOAH *   CLEAR     23  21  93 W6        30.23S WCI  16
$$

IAZ047>049-059>061-072>074-084-191000-
   CENTRAL IOWA

CITY           SKY/WX    TMP DP  RH WIND       PRES   REMARKS
AMES           CLEAR     25  16  68 NW14      30.15R WCI  13
ANKENY *       CLEAR     25  18  74 NW8G15    30.17R WCI  16
BOONE *        CLEAR     23  18  80 NW12G18   30.14R WCI  12
CHARITON *     PTCLDY    27  19  74 NW13      30.14S WCI  16
DES MOINES     PTCLDY    27  17  66 NW14      30.16R WCI  16
GRINNELL*      CLEAR     24  16  72 NW17G23   30.13R WCI  10
KNOXVILLE *    CLEAR     27  16  63 NW15      30.13S WCI  15
MARSHALLTOWN   CLEAR     22  15  75 NW18      30.13R WCI   7
NEWTON *       CLEAR     25  14  63 NW16      30.15R WCI  12
PELLA *        CLEAR     24  18  78 NW7       30.15S WCI  16
PERRY *          N/A     24  18  79 W9        30.17S WCI  14
$$

IAZ004>006-015-016-023>025-035-036-191000-
   NORTH CENTRAL IOWA

CITY           SKY/WX    TMP DP  RH WIND       PRES   REMARKS
ALGONA *       CLEAR     21  16  79 NW10      30.13R WCI  10
CLARION *      CLEAR     19  18  93 NW9       30.13R WCI   9
ESTHERVILLE    CLEAR     17  13  84 W8        30.13R WCI   7
FORT DODGE *   CLEAR     22  16  78 NW8       30.15R WCI  12
MASON CITY     CLEAR     18  11  74 NW16      30.11R WCI   3
FOREST CITY *    N/A     21  14  73 NW10      30.11R WCI  10
WEBSTER CITY * CLEAR     21  16  79 NW13      30.13R WCI   9
IOWA FALLS *     N/A     23  16  74 NW15      30.13R WCI  10
$$

IAZ007>011-017>019-026>030-037>042-050>054-066-191000-
   NORTHEAST IOWA

CITY           SKY/WX    TMP DP  RH WIND       PRES   REMARKS
CEDAR RAPIDS   CLEAR     22  15  75 NW14      30.06R WCI   9
CHARLES CITY * CLEAR     19  12  73 NW13      30.08R WCI   7
CLINTON *      CLOUDY    26  21  81 NW17G25   30.03R WCI  13
DECORAH *      CLOUDY    21  14  73 NW10G20   30.02R WCI  10
DUBUQUE        PTCLDY    23  16  74 NW16      29.99S WCI  10
MONTICELLO *   CLEAR     23  16  74 NW12      30.04S WCI  12
OELWEIN *      CLOUDY    21  16  79 NW21      30.07R WCI   6
WATERLOO       CLEAR     21  12  68 NW15G21   30.10R WCI   8
$$

IAZ064-065-067-068-078-191000-
   EAST CENTRAL IOWA

CITY           SKY/WX    TMP DP  RH WIND       PRES   REMARKS
DAVENPORT      CLEAR     24  18  77 NW15      30.06R WCI  11
IOWA CITY      CLEAR     26  15  63 NW14G22   30.09R WCI  14
MT. PLEASANT * CLEAR     27  16  64 NW17      30.10R WCI  14
MUSCATINE *    CLEAR     27  18  69 NW16      30.10R WCI  14
QUAD CITIES    CLEAR     26  17  68 NW15G25   30.05R WCI  14
$$

IAZ062-063-075>077-085>089-095>099-191000-
   SOUTHEAST IOWA

CITY           SKY/WX    TMP DP  RH WIND       PRES   REMARKS
BURLINGTON     CLEAR     27  18  69 NW13G22   30.08R WCI  16
FAIRFIELD *    CLEAR     27  16  63 NW15G23   30.10S WCI  15
FORT MADISON * CLEAR     27  18  69 NW16G23   30.10R WCI  14
KEOKUK *       CLEAR     28  18  64 NW13G22   30.10R WCI  18
OSKALOOSA *      N/A     25  17  69 NW17G25   30.13R WCI  12
OTTUMWA        CLEAR     26  15  63 NW15      30.13R WCI  14
WASHINGTON *   CLEAR     25  18  74 NW15G21   30.10S WCI  12
$$

ABBREVIATIONS USED IN REMARKS
   TC - TEMPERATURES IN CELSIUS
  WCI - WIND CHILL INDEX
   HX - HEAT INDEX
  VSB - VISIBILITY
$$





USA.gov is the U.S. government's official web portal to all federal, state and local government web resources and services.